RYR2841 FYWH-FACT

Flight info

Callsign RYR2841
Flight time N/A
Altitude 34000
Route EGRED UN185 KEBAT/N0390F280 UR987 ERDAS ERDAS1C
Aircraft B737/M-SDE2E3FGHIRWXY/LB1

Departure

Time 2026-04-17 10:14
Airport Hosea Kutako International Airport (FYWH)

Arrival

Time N/A
Airport Cape Town International Airport (FACT)
Time Latitude Longitude Altitude Speed Heading
2026-04-17 09:49 -22.48652 17.46185 5604 ft 0 kts 324°
2026-04-17 10:08 -22.48646 17.46180 5607 ft 1 kts 324°
2026-04-17 10:08 -22.48631 17.46170 5610 ft 4 kts 328°
2026-04-17 10:09 -22.48597 17.46149 5604 ft 7 kts 333°
2026-04-17 10:09 -22.48542 17.46157 5608 ft 11 kts 52°
2026-04-17 10:09 -22.48498 17.46251 5606 ft 17 kts 63°
2026-04-17 10:09 -22.48440 17.46383 5603 ft 22 kts 65°
2026-04-17 10:10 -22.48367 17.46546 5599 ft 26 kts 63°
2026-04-17 10:10 -22.48280 17.46732 5587 ft 29 kts 63°
2026-04-17 10:10 -22.48188 17.46934 5583 ft 29 kts 64°
2026-04-17 10:11 -22.48016 17.47305 5579 ft 26 kts 63°
2026-04-17 10:11 -22.47937 17.47473 5574 ft 24 kts 63°
2026-04-17 10:11 -22.47866 17.47630 5570 ft 23 kts 64°
2026-04-17 10:11 -22.47796 17.47781 5567 ft 22 kts 63°
2026-04-17 10:12 -22.47740 17.47897 5566 ft 9 kts 50°
2026-04-17 10:12 -22.47683 17.47913 5566 ft 9 kts 343°
2026-04-17 10:12 -22.47641 17.47869 5567 ft 9 kts 284°
2026-04-17 10:12 -22.47659 17.47809 5568 ft 8 kts 243°
2026-04-17 10:13 -22.47693 17.47735 5570 ft 26 kts 244°
2026-04-17 10:13 -22.47882 17.47325 5577 ft 96 kts 243°
2026-04-17 10:13 -22.48275 17.46474 5588 ft 155 kts 244°
2026-04-17 10:13 -22.48830 17.45271 5683 ft 197 kts 245°
2026-04-17 10:14 -22.49466 17.43958 6438 ft 201 kts 242°
2026-04-17 10:14 -22.50136 17.42570 6794 ft 212 kts 245°
2026-04-17 10:14 -22.50776 17.41162 7596 ft 207 kts 245°
2026-04-17 10:14 -22.51417 17.39767 8360 ft 206 kts 246°
2026-04-17 10:15 -22.52035 17.38397 9168 ft 204 kts 249°
2026-04-17 10:15 -22.52689 17.36926 9410 ft 230 kts 251°
2026-04-17 10:15 -22.53285 17.35304 10053 ft 233 kts 256°
2026-04-17 10:15 -22.54117 17.33707 10430 ft 264 kts 231°
2026-04-17 10:16 -22.55824 17.32640 10691 ft 307 kts 197°
2026-04-17 10:16 -22.57985 17.32545 11380 ft 324 kts 174°
2026-04-17 10:16 -22.60153 17.33263 12273 ft 329 kts 156°
2026-04-17 10:16 -22.62038 17.34706 13051 ft 337 kts 136°
2026-04-17 10:17 -22.63633 17.36583 13696 ft 339 kts 130°
2026-04-17 10:17 -22.65145 17.38555 13967 ft 340 kts 129°
2026-04-17 10:17 -22.66674 17.40550 13956 ft 348 kts 129°
2026-04-17 10:17 -22.68248 17.42548 13944 ft 347 kts 130°
2026-04-17 10:18 -22.69832 17.44505 13921 ft 344 kts 131°
2026-04-17 10:18 -22.71415 17.46428 13916 ft 341 kts 131°
2026-04-17 10:18 -22.72996 17.48339 13905 ft 340 kts 131°
2026-04-17 10:18 -22.74571 17.50241 13905 ft 339 kts 131°
2026-04-17 10:19 -22.76427 17.51874 13972 ft 355 kts 158°
2026-04-17 10:19 -22.78841 17.52554 14258 ft 366 kts 182°
2026-04-17 10:19 -22.81320 17.52185 14806 ft 365 kts 199°
2026-04-17 10:19 -22.83863 17.51828 15526 ft 376 kts 180°
2026-04-17 10:20 -22.86468 17.52224 16333 ft 380 kts 173°
2026-04-17 10:20 -22.89079 17.52782 17042 ft 385 kts 172°
2026-04-17 10:20 -22.91714 17.53366 17760 ft 388 kts 172°
2026-04-17 10:20 -22.94377 17.53935 18466 ft 391 kts 172°
2026-04-17 10:21 -22.97060 17.54482 19091 ft 394 kts 173°
2026-04-17 10:21 -22.99762 17.55011 19744 ft 395 kts 174°
2026-04-17 10:21 -23.02467 17.55529 20445 ft 396 kts 174°
2026-04-17 10:21 -23.05193 17.56043 21103 ft 398 kts 174°
2026-04-17 10:22 -23.07930 17.56557 21731 ft 401 kts 175°
2026-04-17 10:22 -23.10699 17.57077 22330 ft 405 kts 175°
2026-04-17 10:22 -23.13485 17.57601 22943 ft 407 kts 175°
2026-04-17 10:22 -23.16249 17.58122 23531 ft 409 kts 175°
2026-04-17 10:23 -23.19071 17.58654 24016 ft 412 kts 175°
2026-04-17 10:23 -23.21911 17.59189 24487 ft 416 kts 175°
2026-04-17 10:23 -23.24772 17.59728 24964 ft 419 kts 176°
2026-04-17 10:23 -23.27655 17.60229 25442 ft 421 kts 177°
2026-04-17 10:24 -23.30560 17.60696 25919 ft 423 kts 178°
2026-04-17 10:24 -23.33486 17.61157 26382 ft 426 kts 178°
2026-04-17 10:24 -23.36432 17.61624 26847 ft 429 kts 178°
2026-04-17 10:24 -23.39402 17.62101 27278 ft 434 kts 178°
2026-04-17 10:25 -23.42398 17.62587 27689 ft 437 kts 178°
2026-04-17 10:25 -23.45420 17.63080 28131 ft 440 kts 178°
2026-04-17 10:25 -23.48464 17.63577 28569 ft 443 kts 179°
2026-04-17 10:25 -23.51524 17.64077 28988 ft 446 kts 179°
2026-04-17 10:26 -23.54603 17.64583 29398 ft 449 kts 179°
2026-04-17 10:26 -23.57656 17.65086 29870 ft 450 kts 179°
2026-04-17 10:26 -23.60742 17.65597 30402 ft 447 kts 179°
2026-04-17 10:26 -23.63811 17.66106 30929 ft 445 kts 179°
2026-04-17 10:27 -23.66877 17.66613 31407 ft 445 kts 179°
2026-04-17 10:27 -23.69947 17.67118 31788 ft 447 kts 179°
2026-04-17 10:27 -23.73025 17.67626 32226 ft 446 kts 179°
2026-04-17 10:27 -23.76099 17.68134 32714 ft 444 kts 179°
2026-04-17 10:28 -23.79149 17.68637 33169 ft 443 kts 180°
2026-04-17 10:28 -23.82198 17.69134 33555 ft 443 kts 180°
2026-04-17 10:28 -23.85253 17.69629 33875 ft 445 kts 180°
2026-04-17 10:29 -23.91440 17.70629 33873 ft 450 kts 180°
2026-04-17 10:29 -23.97542 17.71629 33886 ft 442 kts 180°
2026-04-17 10:30 -24.03621 17.72621 33877 ft 441 kts 180°
2026-04-17 10:30 -24.09750 17.73615 33881 ft 449 kts 180°
2026-04-17 10:31 -24.15907 17.74623 33849 ft 445 kts 179°
2026-04-17 10:31 -24.22010 17.75625 33859 ft 441 kts 180°